Weather in Gordali

Russia / Chechen Republic     43°02′21″N   46°13′33″E
temp.,
°C
wind,
m/s
gust,
m/s
humid.,
%
clouds,
%
prec.,
mm/h
press.,
hPa
HPBL,
m
24 july, sat
sat2400:00+16wnw1199100 1.6 1011111
03:00+16wsw129866 1.8 1011104
06:00+17w129666 0.1 1012130
09:00+19nnw228678 0.3 1012601
12:00+21nnw227599 0.6 1012923
15:00+18ssw1189100 1.4 101270
18:00+18s2287100 0.2 101354
21:00+18se1182100 0.3 101417
25 july, sun
sun2500:00+17sse228762 0.2 101522
03:00+17sse118525 0.2 101519
06:00+18s11831 0.0 101553
09:00+24nne235422 0.0 10141115
12:00+26nne324540 0.0 10141619
15:00+27ne334768 0.1 10131398
18:00+23ne246220 0.0 1015213
21:00+19s22776 0.0 101717
26 july, mon
mon2600:00+18sse22760 0.0 101716
03:00+18sse11780 0.0 101714
06:00+19sse01760 0.0 101856
09:00+24n22564 0.0 1017866
12:00+27nne334624 0.0 10161500
15:00+28nne333832 0.1 10141807
18:00+24nne36503 0.0 1016371
21:00+18s11690 0.1 101813
27 july, tue
tue2700:00+18s22726 0.3 101721
03:00+17s117797 0.7 101712
06:00+18ssw007624 0.1 101749
09:00+23n32606 0.6 1016832
12:00+24n335782 0.3 10161267
15:00+20sw1281100 0.9 101658
18:00+17nw1191100 1.1 101747
21:00+16nw1296100 3.0 1018110
28 july, wed
wed2800:00+16n1195100 3.2 102082
03:00+14nnw2297100 4.0 1020100
06:00+13nnw1196100 0.8 102182
09:00+13ssw0194100 1.1 1021128
12:00+17n116498 0.0 1020792
15:00+17n016560 0.1 1020681
18:00+17sse016764 0.0 1020278
21:00+14s34742 0.0 102153